EHI
14 14 13 10 8 7 8 9 8 6 3 2 3 3 1 0 1 4 5 2 0 0 0 0 0 0 0 0 0 0 0 0 0 0 0 0 0 0
15 14 13 12 12 11 10 10 11 9 6 5 6 6 4 3 3 6 6 3 1 0 0 0 0 0 0 0 0 0 0 0 0 0 0 0 0 0
15 15 13 13 15 15 12 11 13 13 11 9 10 11 11 9 9 9 8 5 3 1 0 0 0 0 0 0 0 0 0 0 0 0 0 0 0 0
16 17 15 13 15 16 15 13 13 14 14 14 13 15 16 15 14 12 10 7 4 1 0 0 0 0 0 0 0 0 0 0 0 0 0 0 0 0
17 19 18 15 16 17 17 17 17 17 19 19 17 17 18 18 17 13 9 9 6 2 0 0 0 0 0 0 0 0 0 0 0 0 0 0 0 0
19 20 20 18 17 16 17 20 22 22 24 23 20 19 21 21 18 12 9 9 7 4 3 3 2 1 0 0 0 0 0 0 0 0 0 0 0 0
24 25 23 18 14 12 13 17 19 20 21 21 19 19 21 21 17 12 9 8 7 6 7 8 6 3 2 1 0 0 0 0 0 0 0 0 0 0
27 28 24 15 9 8 8 8 9 11 13 16 16 18 19 17 15 12 11 10 8 9 11 11 9 7 6 3 1 0 0 0 0 0 0 0 0 0
26 26 20 11 7 7 6 5 5 5 6 10 13 16 16 16 14 13 12 12 10 12 14 12 11 10 8 5 2 0 0 0 0 0 0 0 0 0
20 21 18 12 7 8 8 7 8 7 4 4 7 10 11 12 13 13 13 13 13 14 15 14 13 12 10 8 3 0 0 0 0 0 0 0 0 0
14 15 16 12 6 4 6 9 11 10 6 2 2 2 3 5 7 10 13 13 13 14 15 14 12 12 13 10 6 2 0 0 0 0 0 0 0 0
11 12 11 7 3 1 4 7 9 9 8 5 3 2 2 3 5 8 11 12 12 12 14 14 13 13 13 11 8 5 2 1 0 0 0 0 0 0
8 9 8 4 0 0 1 3 4 4 5 6 5 6 7 8 9 10 11 11 11 13 15 16 14 13 12 10 9 9 7 5 2 1 1 0 0 0
5 6 5 2 0 0 0 1 1 1 1 3 5 7 9 12 13 13 12 11 11 13 15 16 15 13 12 10 9 10 12 10 6 4 3 2 1 1
4 2 1 1 0 0 0 0 0 0 0 1 3 4 6 10 13 13 11 10 10 11 12 14 15 14 13 12 11 10 11 11 9 7 5 5 4 3
3 2 1 1 1 1 0 1 1 0 0 1 2 2 3 7 11 12 10 8 8 8 10 13 14 13 12 12 12 9 9 11 11 8 6 6 6 6
3 3 3 2 2 2 2 2 3 2 1 1 2 2 2 5 8 10 8 6 5 6 7 10 11 10 10 11 10 8 8 10 10 8 6 6 6 6
3 3 3 3 3 3 3 3 4 4 3 3 3 3 3 4 4 4 4 3 3 4 4 6 7 7 6 7 7 6 6 8 8 6 6 6 6 6
3 3 3 3 3 3 3 3 4 3 3 2 2 2 2 2 1 1 1 1 2 3 3 4 4 4 4 3 4 3 4 5 6 5 5 5 5 4
3 3 3 3 3 3 2 2 2 1 1 1 1 1 1 0 0 0 0 0 1 2 3 3 3 3 3 3 3 2 2 3 5 5 5 6 5 3
2 2 2 2 2 1 1 1 1 0 0 0 0 0 0 0 0 0 0 0 0 1 1 3 3 2 3 3 3 3 2 2 3 4 4 4 3 2
1 1 1 1 1 0 0 0 0 0 0 0 0 0 0 0 0 0 0 0 0 0 1 2 3 3 3 3 3 3 3 2 1 1 1 1 1 0
0 0 0 0 0 0 0 0 0 0 0 0 0 0 0 0 0 0 0 0 0 0 0 1 3 3 3 3 2 2 3 2 1 0 0 0 0 0
Wind_Speed
7 7 6 5 5 5 5 5 6 6 4 3 3 2 2 2 2 3 3 5 6 5 5 5 4 4 4 4 4 4 4 5 5 5 6 6 6 6
5 5 6 5 4 5 5 5 6 6 5 3 2 2 2 3 3 4 3 6 7 7 6 6 5 5 5 5 5 5 5 5 5 5 5 5 5 5
6 7 7 6 5 5 5 5 5 6 6 5 4 3 4 4 3 4 4 5 5 8 8 7 6 6 6 5 5 5 5 5 5 5 5 5 5 5
7 7 7 6 6 5 5 6 5 6 7 6 5 4 5 5 4 5 5 4 3 7 9 8 7 6 6 6 6 5 5 5 5 5 5 5 6 6
7 7 7 6 6 5 6 6 6 6 6 6 5 3 4 4 5 5 5 4 5 5 8 9 8 7 7 7 6 6 6 5 5 5 5 5 5 5
6 6 6 6 6 6 6 6 6 6 6 6 5 4 4 4 4 5 4 4 4 3 3 5 7 9 9 8 8 7 7 6 6 5 5 5 5 5
5 5 5 4 4 4 4 4 5 6 6 6 5 5 5 4 5 4 4 4 4 4 4 4 5 6 7 9 9 8 8 7 7 6 6 6 6 5
5 5 4 4 5 5 4 4 4 5 6 6 5 5 5 4 4 5 5 5 4 4 4 5 4 4 4 4 6 9 9 8 7 7 7 6 6 6
4 4 4 3 4 5 5 6 5 5 6 6 6 6 5 4 5 6 5 5 5 3 4 5 4 5 4 4 8 9 9 8 8 7 7 7 6 6
4 4 4 3 3 4 4 5 5 5 6 6 6 6 5 3 4 6 5 6 6 5 5 5 4 4 4 3 9 9 9 8 8 7 7 7 7 7
4 4 3 3 2 3 4 5 5 4 4 5 5 4 4 4 4 5 5 6 5 4 4 5 4 4 4 4 6 10 9 9 8 8 8 7 7 7
3 3 3 3 2 3 4 4 4 4 4 4 5 7 7 6 7 7 6 6 5 5 3 4 4 3 3 3 3 5 6 8 9 9 9 8 7 6
3 3 1 3 3 4 5 4 4 4 5 5 5 5 5 5 6 6 6 6 6 5 3 4 4 4 4 3 3 3 4 4 6 6 8 9 9 7
3 2 1 2 2 3 4 3 4 5 4 4 4 4 4 4 4 5 5 6 6 6 5 5 5 4 5 5 3 3 4 4 4 5 4 8 9 9
1 2 1 1 3 3 4 5 6 4 4 4 4 4 3 3 3 3 5 5 6 7 6 7 7 5 6 6 4 4 4 4 5 5 4 5 5 5
1 2 4 5 4 3 3 4 4 3 3 4 4 3 3 3 4 4 4 4 5 5 5 6 7 7 7 6 5 5 4 4 4 5 4 5 5 5
1 2 2 2 2 2 3 2 3 3 3 4 4 4 4 4 4 3 3 4 5 5 4 4 5 6 7 7 6 6 5 5 4 4 5 6 5 6
3 3 2 2 3 3 3 3 3 3 3 4 4 4 4 4 4 4 4 4 5 4 4 4 4 4 5 5 6 7 6 5 4 4 6 6 6 5
3 2 2 2 3 3 3 3 3 2 3 4 4 4 4 4 4 4 4 4 4 4 4 4 4 4 6 6 5 5 5 4 4 4 5 6 6 5
2 2 2 3 3 3 3 3 3 3 3 3 4 4 4 4 4 4 4 4 4 4 4 4 4 4 6 6 5 4 7 6 5 5 5 5 4 2
2 2 2 3 3 3 3 3 3 3 3 3 3 4 4 4 4 4 4 4 5 4 5 4 4 5 6 5 5 5 4 5 5 5 5 5 4 4
2 3 2 3 2 3 3 3 4 3 3 3 3 3 4 4 4 5 4 4 4 4 5 5 4 5 5 6 6 6 5 4 4 5 5 4 4 5
2 2 3 3 3 3 3 4 5 4 3 3 3 3 3 4 4 4 4 4 4 4 5 4 4 4 4 5 5 5 5 5 4 4 3 4 6 5
Wind_Direction
228 224 235 240 242 249 250 251 262 269 260 228 235 239 238 239 181 224 214 170 182 194 198 199 198 193 189 188 189 189 187 192 197 201 202 206 210 222
236 243 243 244 243 245 246 244 247 259 269 265 235 253 258 255 196 231 215 163 184 192 196 195 195 193 190 187 187 183 177 181 188 188 189 190 199 215
231 232 235 243 242 242 242 241 240 243 252 256 246 233 237 255 240 237 223 214 191 184 189 190 191 193 193 191 189 186 184 188 194 195 194 195 201 211
231 234 237 232 230 243 244 246 246 245 245 249 243 232 228 230 231 240 236 227 224 170 181 187 191 194 193 194 193 192 194 195 197 201 200 201 205 211
237 233 235 235 234 233 239 244 243 240 239 244 243 237 236 222 222 230 234 239 241 180 180 189 192 193 191 192 193 195 198 201 203 207 208 207 209 211
244 241 241 235 234 235 235 240 246 248 240 243 245 237 233 224 227 235 232 221 240 232 208 200 187 190 193 191 193 196 198 201 206 210 212 213 211 212
242 244 246 245 253 253 255 242 239 242 240 237 238 239 234 227 230 238 245 240 232 243 235 216 201 207 197 194 196 199 198 198 202 206 210 213 213 213
242 245 237 223 219 216 240 260 263 251 250 247 241 239 241 238 245 250 249 249 247 232 247 244 229 228 218 212 181 185 192 196 199 201 204 209 213 214
241 247 251 234 224 228 215 214 226 244 256 261 257 251 242 238 241 244 248 261 269 259 248 250 235 237 230 191 165 177 185 191 196 199 203 206 211 217
236 240 246 254 251 252 244 238 233 227 231 238 249 252 251 252 241 248 251 248 256 250 243 257 249 249 244 202 166 178 185 189 192 195 200 206 212 219
239 244 245 244 255 259 245 245 245 241 222 220 238 245 251 245 250 247 244 246 251 245 233 252 255 253 244 226 180 179 182 187 193 197 201 207 215 222
228 226 211 234 240 254 244 242 246 254 252 228 220 223 227 221 220 236 246 249 255 251 218 241 246 247 249 232 212 188 192 190 196 201 203 204 211 228
250 246 200 160 210 242 256 257 259 270 262 249 237 232 227 225 220 221 239 250 257 259 236 231 247 245 246 244 234 223 213 201 197 200 201 201 206 227
269 290 45 126 245 256 251 254 258 257 254 251 246 243 238 235 231 230 232 242 253 262 265 248 253 252 252 252 244 224 222 217 211 212 205 191 205 214
290 48 33 231 257 246 223 235 242 244 249 253 254 256 259 257 252 241 236 237 242 244 242 242 249 246 248 252 253 241 234 228 217 218 215 209 211 213
211 149 187 220 238 250 234 229 245 256 258 261 267 271 268 254 249 252 250 241 243 236 226 235 244 246 246 246 247 245 235 232 228 226 226 226 223 222
315 238 237 235 237 239 243 245 245 237 240 251 256 258 261 263 259 251 252 253 250 251 242 228 231 236 246 251 250 246 244 241 231 221 231 237 232 228
254 243 247 251 253 253 252 250 250 254 255 253 253 257 260 262 262 257 248 249 252 251 252 249 241 240 242 240 246 250 246 243 240 227 236 243 238 227
240 250 259 262 268 272 269 267 264 269 275 264 264 266 268 267 263 260 257 255 255 255 257 254 247 247 250 251 234 228 251 254 247 242 240 247 252 240
253 269 274 278 280 284 284 285 283 279 272 266 263 265 266 265 265 264 258 258 259 256 256 256 251 251 257 264 266 251 224 241 246 250 254 260 273 257
278 280 280 278 278 281 285 286 284 285 291 284 274 275 273 268 265 263 263 253 254 255 257 261 265 262 264 261 257 254 239 217 235 248 250 251 257 247
278 279 280 279 277 276 275 275 273 273 273 275 280 282 285 284 276 269 269 263 257 260 267 268 261 253 250 251 256 259 254 240 214 209 224 241 251 249
284 286 282 277 273 269 271 273 277 278 276 275 280 284 290 292 290 287 282 277 278 275 265 263 264 259 255 253 258 263 261 256 255 238 228 199 202 212